"Sample Date","Sample Time","Sample Value","Units","Flow Rate","Laser Status","Micron Size 0","Counts/Channel 0","Micron Size 1","Counts/Channel 1","Micron Size 2","Counts/Channel 2","Micron Size 3","Counts/Channel 3","Micron Size 4","Counts/Channel 4","Micron Size 5","Counts/Channel 5","Micron Size 6","Counts/Channel 6","Micron Size 7","Counts/Channel 7","Micron Size 8","Counts/Channel 8","Micron Size 9","Counts/Channel 9","Micron Size 10","Counts/Channel 10","Micron Size 11","Counts/Channel 11","Micron Size 12","Counts/Channel 12","Micron Size 13","Counts/Channel 13","Micron Size 14","Counts/Channel 14","Micron Size 15","Counts/Channel 15","Micron Size 16","Counts/Channel 16","Micron Size 17","Counts/Channel 17","Micron Size 18","Counts/Channel 18","Micron Size 19","Counts/Channel 19","Micron Size 20","Counts/Channel 20","Micron Size 21","Counts/Channel 21","Micron Size 22","Counts/Channel 22","Micron Size 23","Counts/Channel 23","Micron Size 24","Counts/Channel 24","Micron Size 25","Counts/Channel 25","Micron Size 26","Counts/Channel 26","Micron Size 27","Counts/Channel 27","Micron Size 28","Counts/Channel 28","Micron Size 29","Counts/Channel 29","Micron Size 30","Counts/Channel 30","Micron Size 31","Counts/Channel 31"
"05/03/07","00:00:04",67530.000,"cc",28292.496,1,0.100,53457.000,0.200,12467.000,0.300,1536.000,0.500,58.000,1.000,12.000,5.000,0
"05/03/07","00:00:10",67488.000,"cc",28354.998,1,0.100,53123.000,0.200,12838.000,0.300,1481.000,0.500,43.000,1.000,3.000,5.000,0
"05/03/07","00:00:16",67816.000,"cc",28338.813,1,0.100,53427.000,0.200,12795.000,0.300,1534.000,0.500,54.000,1.000,6.000,5.000,0
"05/03/07","00:00:22",67830.000,"cc",28322.301,1,0.100,53714.000,0.200,12588.000,0.300,1460.000,0.500,62.000,1.000,6.000,5.000,0
"05/03/07","00:00:28",67543.000,"cc",28319.297,1,0.100,53428.000,0.200,12473.000,0.300,1583.000,0.500,53.000,1.000,6.000,5.000,0
"05/03/07","00:00:34",67794.000,"cc",28304.334,1,0.100,53599.000,0.200,12595.000,0.300,1536.000,0.500,60.000,1.000,4.000,5.000,0
"05/03/07","00:00:40",67781.000,"cc",28327.910,1,0.100,53519.000,0.200,12688.000,0.300,1481.000,0.500,86.000,1.000,7.000,5.000,0
"05/03/07","00:00:46",67175.000,"cc",28300.850,1,0.100,53140.000,0.200,12530.000,0.300,1434.000,0.500,61.000,1.000,10.000,5.000,0
"05/03/07","00:00:52",67534.000,"cc",28277.020,1,0.100,53306.000,0.200,12621.000,0.300,1544.000,0.500,52.000,1.000,11.000,5.000,0
"05/03/07","00:00:58",67596.000,"cc",28321.986,1,0.100,53408.000,0.200,12628.000,0.300,1494.000,0.500,60.000,1.000,6.000,5.000,0
"05/03/07","00:01:04",67753.000,"cc",28325.391,1,0.100,53317.000,0.200,12750.000,0.300,1621.000,0.500,61.000,1.000,4.000,5.000,0
"05/03/07","00:01:10",67803.000,"cc",28289.160,1,0.100,53639.000,0.200,12549.000,0.300,1565.000,0.500,47.000,1.000,3.000,5.000,0
"05/03/07","00:01:16",67399.000,"cc",28305.570,1,0.100,53228.000,0.200,12658.000,0.300,1442.000,0.500,66.000,1.000,5.000,5.000,0
"05/03/07","00:01:22",66778.000,"cc",28388.211,1,0.100,52617.000,0.200,12590.000,0.300,1501.000,0.500,66.000,1.000,4.000,5.000,0
"05/03/07","00:01:28",67891.000,"cc",28324.920,1,0.100,53555.000,0.200,12759.000,0.300,1508.000,0.500,63.000,1.000,6.000,5.000,0
"05/03/07","00:01:34",67586.000,"cc",28363.045,1,0.100,53216.000,0.200,12648.000,0.300,1646.000,0.500,69.000,1.000,7.000,5.000,0
"05/03/07","00:01:40",67135.000,"cc",28231.697,1,0.100,53067.000,0.200,12472.000,0.300,1542.000,0.500,47.000,1.000,7.000,5.000,0
"05/03/07","00:01:46",67944.000,"cc",28300.879,1,0.100,53877.000,0.200,12534.000,0.300,1488.000,0.500,40.000,1.000,5.000,5.000,0
"05/03/07","00:01:52",68285.000,"cc",28273.383,1,0.100,53942.000,0.200,12714.000,0.300,1574.000,0.500,53.000,1.000,2.000,5.000,0
"05/03/07","00:01:58",67734.000,"cc",28275.357,1,0.100,53649.000,0.200,12526.000,0.300,1499.000,0.500,55.000,1.000,5.000,5.000,0
"05/03/07","00:02:04",67855.000,"cc",28340.059,1,0.100,53364.000,0.200,12922.000,0.300,1503.000,0.500,64.000,1.000,2.000,5.000,0
"05/03/07","00:02:10",67008.000,"cc",28412.969,1,0.100,52820.000,0.200,12665.000,0.300,1462.000,0.500,55.000,1.000,6.000,5.000,0
"05/03/07","00:02:16",66925.000,"cc",28352.643,1,0.100,52799.000,0.200,12477.000,0.300,1575.000,0.500,68.000,1.000,6.000,5.000,0
"05/03/07","00:02:22",67290.000,"cc",28343.336,1,0.100,53233.000,0.200,12510.000,0.300,1481.000,0.500,58.000,1.000,8.000,5.000,0
"05/03/07","00:02:28",67179.000,"cc",28315.926,1,0.100,53117.000,0.200,12532.000,0.300,1457.000,0.500,68.000,1.000,5.000,5.000,0
"05/03/07","00:02:34",66554.000,"cc",28286.260,1,0.100,52399.000,0.200,12572.000,0.300,1506.000,0.500,70.000,1.000,7.000,5.000,0
"05/03/07","00:02:40",67221.000,"cc",28252.926,1,0.100,53179.000,0.200,12499.000,0.300,1476.000,0.500,64.000,1.000,3.000,5.000,0
"05/03/07","00:02:46",67059.000,"cc",28340.147,1,0.100,52703.000,0.200,12725.000,0.300,1572.000,0.500,54.000,1.000,5.000,5.000,0
"05/03/07","00:02:52",66987.000,"cc",28306.820,1,0.100,52881.000,0.200,12553.000,0.300,1501.000,0.500,47.000,1.000,5.000,5.000,0
"05/03/07","00:02:58",66435.000,"cc",28366.703,1,0.100,52443.000,0.200,12470.000,0.300,1469.000,0.500,51.000,1.000,2.000,5.000,0
"05/03/07","00:03:04",66434.000,"cc",28357.617,1,0.100,52413.000,0.200,12484.000,0.300,1468.000,0.500,62.000,1.000,7.000,5.000,0
"05/03/07","00:03:10",65815.000,"cc",28356.621,1,0.100,51895.000,0.200,12346.000,0.300,1528.000,0.500,41.000,1.000,5.000,5.000,0
"05/03/07","00:03:16",66532.000,"cc",28306.285,1,0.100,52526.000,0.200,12407.000,0.300,1536.000,0.500,51.000,1.000,12.000,5.000,0
"05/03/07","00:03:22",66415.000,"cc",28345.955,1,0.100,52312.000,0.200,12506.000,0.300,1515.000,0.500,74.000,1.000,8.000,5.000,0
"05/03/07","00:03:28",65638.000,"cc",28313.318,1,0.100,51921.000,0.200,12220.000,0.300,1439.000,0.500,53.000,1.000,5.000,5.000,0
"05/03/07","00:03:34",65632.000,"cc",28295.652,1,0.100,51804.000,0.200,12261.000,0.300,1508.000,0.500,53.000,1.000,6.000,5.000,0
"05/03/07","00:03:40",65577.000,"cc",28297.553,1,0.100,51931.000,0.200,12116.000,0.300,1475.000,0.500,45.000,1.000,10.000,5.000,0
"05/03/07","00:03:46",65699.000,"cc",28306.277,1,0.100,52000.000,0.200,12168.000,0.300,1473.000,0.500,52.000,1.000,6.000,5.000,0
"05/03/07","00:03:52",65832.000,"cc",28316.670,1,0.100,52092.000,0.200,12189.000,0.300,1488.000,0.500,58.000,1.000,5.000,5.000,0
"05/03/07","00:03:58",65123.000,"cc",28268.051,1,0.100,51407.000,0.200,12190.000,0.300,1447.000,0.500,68.000,1.000,11.000,5.000,0
"05/03/07","00:04:04",64580.000,"cc",28287.584,1,0.100,51165.000,0.200,11896.000,0.300,1455.000,0.500,56.000,1.000,8.000,5.000,0
"05/03/07","00:04:10",64974.000,"cc",28358.387,1,0.100,51425.000,0.200,12081.000,0.300,1396.000,0.500,66.000,1.000,6.000,5.000,0
"05/03/07","00:04:16",65703.000,"cc",28315.658,1,0.100,51752.000,0.200,12395.000,0.300,1493.000,0.500,53.000,1.000,10.000,5.000,0
"05/03/07","00:04:22",64724.000,"cc",28318.451,1,0.100,51062.000,0.200,12139.000,0.300,1466.000,0.500,54.000,1.000,3.000,5.000,0
"05/03/07","00:04:28",65009.000,"cc",28341.334,1,0.100,51256.000,0.200,12240.000,0.300,1452.000,0.500,55.000,1.000,6.000,5.000,0
"05/03/07","00:04:34",64494.000,"cc",28299.742,1,0.100,50880.000,0.200,12081.000,0.300,1464.000,0.500,65.000,1.000,4.000,5.000,0
"05/03/07","00:04:40",64094.000,"cc",28268.588,1,0.100,50544.000,0.200,12036.000,0.300,1453.000,0.500,55.000,1.000,6.000,5.000,0
"05/03/07","00:04:46",64905.000,"cc",28290.482,1,0.100,51095.000,0.200,12240.000,0.300,1510.000,0.500,54.000,1.000,6.000,5.000,0
"05/03/07","00:04:52",64214.000,"cc",28272.572,1,0.100,50687.000,0.200,12028.000,0.300,1438.000,0.500,57.000,1.000,4.000,5.000,0
"05/03/07","00:04:58",63478.000,"cc",28339.906,1,0.100,50291.000,0.200,11730.000,0.300,1395.000,0.500,54.000,1.000,8.000,5.000,0
"05/03/07","00:05:04",63269.000,"cc",28335.816,1,0.100,49912.000,0.200,11828.000,0.300,1451.000,0.500,75.000,1.000,3.000,5.000,0
"05/03/07","00:05:10",64039.000,"cc",28305.928,1,0.100,50551.000,0.200,11955.000,0.300,1474.000,0.500,55.000,1.000,4.000,5.000,0
"05/03/07","00:05:16",63771.000,"cc",28303.580,1,0.100,50254.000,0.200,12013.000,0.300,1426.000,0.500,71.000,1.000,7.000,5.000,0
"05/03/07","00:05:22",63405.000,"cc",28350.395,1,0.100,50081.000,0.200,11832.000,0.300,1428.000,0.500,59.000,1.000,5.000,5.000,0
"05/03/07","00:05:28",63520.000,"cc",28331.693,1,0.100,50134.000,0.200,11896.000,0.300,1416.000,0.500,70.000,1.000,4.000,5.000,0
"05/03/07","00:05:34",63414.000,"cc",28319.697,1,0.100,50034.000,0.200,11904.000,0.300,1426.000,0.500,47.000,1.000,3.000,5.000,0
"05/03/07","00:05:40",62476.000,"cc",28301.514,1,0.100,49112.000,0.200,11898.000,0.300,1402.000,0.500,58.000,1.000,6.000,5.000,0
"05/03/07","00:05:46",62802.000,"cc",28325.527,1,0.100,49519.000,0.200,11771.000,0.300,1450.000,0.500,56.000,1.000,6.000,5.000,0
"05/03/07","00:05:52",62613.000,"cc",28258.229,1,0.100,49427.000,0.200,11672.000,0.300,1434.000,0.500,67.000,1.000,13.000,5.000,0
"05/03/07","00:05:58",62783.000,"cc",28300.037,1,0.100,49666.000,0.200,11671.000,0.300,1374.000,0.500,68.000,1.000,4.000,5.000,0
"05/03/07","00:06:04",62659.000,"cc",28274.697,1,0.100,49323.000,0.200,11839.000,0.300,1436.000,0.500,56.000,1.000,5.000,5.000,0
"05/03/07","00:06:10",62136.000,"cc",28356.807,1,0.100,49143.000,0.200,11571.000,0.300,1361.000,0.500,56.000,1.000,5.000,5.000,0
"05/03/07","00:06:16",62811.000,"cc",28341.893,1,0.100,49608.000,0.200,11735.000,0.300,1419.000,0.500,45.000,1.000,4.000,5.000,0
"05/03/07","00:06:22",62322.000,"cc",28262.533,1,0.100,49057.000,0.200,11821.000,0.300,1374.000,0.500,68.000,1.000,2.000,5.000,0
"05/03/07","00:06:28",61992.000,"cc",28308.746,1,0.100,49014.000,0.200,11585.000,0.300,1339.000,0.500,52.000,1.000,2.000,5.000,0
"05/03/07","00:06:34",62177.000,"cc",28347.295,1,0.100,49063.000,0.200,11654.000,0.300,1389.000,0.500,65.000,1.000,6.000,5.000,0
"05/03/07","00:06:40",61721.000,"cc",28311.674,1,0.100,48796.000,0.200,11529.000,0.300,1328.000,0.500,60.000,1.000,8.000,5.000,0
"05/03/07","00:06:46",61573.000,"cc",28333.232,1,0.100,48638.000,0.200,11541.000,0.300,1341.000,0.500,50.000,1.000,3.000,5.000,0
"05/03/07","00:06:52",60857.000,"cc",28372.402,1,0.100,48079.000,0.200,11348.000,0.300,1374.000,0.500,51.000,1.000,5.000,5.000,0
"05/03/07","00:06:58",61454.000,"cc",28352.553,1,0.100,48332.000,0.200,11692.000,0.300,1373.000,0.500,52.000,1.000,5.000,5.000,0
"05/03/07","00:07:04",60900.000,"cc",28308.680,1,0.100,48196.000,0.200,11322.000,0.300,1322.000,0.500,51.000,1.000,9.000,5.000,0
"05/03/07","00:07:10",60420.000,"cc",28261.332,1,0.100,47717.000,0.200,11333.000,0.300,1298.000,0.500,64.000,1.000,8.000,5.000,0
"05/03/07","00:07:16",60553.000,"cc",28257.514,1,0.100,47749.000,0.200,11363.000,0.300,1393.000,0.500,44.000,1.000,4.000,5.000,0
"05/03/07","00:07:22",60739.000,"cc",28308.600,1,0.100,47932.000,0.200,11338.000,0.300,1393.000,0.500,60.000,1.000,16.000,5.000,0
"05/03/07","00:07:28",60328.000,"cc",28270.029,1,0.100,47714.000,0.200,11227.000,0.300,1294.000,0.500,67.000,1.000,25.000,5.000,1.000
"05/03/07","00:07:34",59951.000,"cc",28336.904,1,0.100,47331.000,0.200,11207.000,0.300,1347.000,0.500,61.000,1.000,5.000,5.000,0
"05/03/07","00:07:40",59955.000,"cc",28390.045,1,0.100,47534.000,0.200,10964.000,0.300,1405.000,0.500,46.000,1.000,6.000,5.000,0
"05/03/07","00:07:46",59549.000,"cc",28306.160,1,0.100,46913.000,0.200,11309.000,0.300,1282.000,0.500,41.000,1.000,4.000,5.000,0
"05/03/07","00:07:52",59369.000,"cc",28340.156,1,0.100,46790.000,0.200,11218.000,0.300,1306.000,0.500,54.000,1.000,1.000,5.000,0
"05/03/07","00:07:58",59418.000,"cc",28353.490,1,0.100,47059.000,0.200,10970.000,0.300,1312.000,0.500,70.000,1.000,7.000,5.000,0
"05/03/07","00:08:04",59422.000,"cc",28287.938,1,0.100,46818.000,0.200,11184.000,0.300,1369.000,0.500,45.000,1.000,6.000,5.000,0
"05/03/07","00:08:10",59988.000,"cc",28331.527,1,0.100,47443.000,0.200,11133.000,0.300,1355.000,0.500,51.000,1.000,6.000,5.000,0
"05/03/07","00:08:16",59577.000,"cc",28265.494,1,0.100,47191.000,0.200,11033.000,0.300,1284.000,0.500,64.000,1.000,5.000,5.000,0
"05/03/07","00:08:22",59705.000,"cc",28330.502,1,0.100,47159.000,0.200,11195.000,0.300,1306.000,0.500,42.000,1.000,3.000,5.000,0
"05/03/07","00:08:28",59338.000,"cc",28323.922,1,0.100,46908.000,0.200,11032.000,0.300,1340.000,0.500,52.000,1.000,6.000,5.000,0
"05/03/07","00:08:34",59899.000,"cc",28352.227,1,0.100,47259.000,0.200,11330.000,0.300,1262.000,0.500,43.000,1.000,5.000,5.000,0
"05/03/07","00:08:40",59735.000,"cc",28311.549,1,0.100,47237.000,0.200,11125.000,0.300,1307.000,0.500,59.000,1.000,7.000,5.000,0
"05/03/07","00:08:46",59664.000,"cc",28291.865,1,0.100,47262.000,0.200,10979.000,0.300,1346.000,0.500,69.000,1.000,8.000,5.000,0
"05/03/07","00:08:52",59231.000,"cc",28329.258,1,0.100,46852.000,0.200,11002.000,0.300,1313.000,0.500,61.000,1.000,3.000,5.000,0
"05/03/07","00:08:58",59864.000,"cc",28308.623,1,0.100,47369.000,0.200,11122.000,0.300,1308.000,0.500,60.000,1.000,5.000,5.000,0
"05/03/07","00:09:04",59417.000,"cc",28313.600,1,0.100,47096.000,0.200,10948.000,0.300,1295.000,0.500,74.000,1.000,4.000,5.000,0
"05/03/07","00:09:10",59757.000,"cc",28328.725,1,0.100,47273.000,0.200,11132.000,0.300,1288.000,0.500,62.000,1.000,2.000,5.000,0
"05/03/07","00:09:16",59818.000,"cc",28304.223,1,0.100,47362.000,0.200,11129.000,0.300,1270.000,0.500,51.000,1.000,6.000,5.000,0
"05/03/07","00:09:22",59735.000,"cc",28306.234,1,0.100,47260.000,0.200,11108.000,0.300,1308.000,0.500,55.000,1.000,4.000,5.000,0
"05/03/07","00:09:28",59255.000,"cc",28315.516,1,0.100,46761.000,0.200,11098.000,0.300,1329.000,0.500,63.000,1.000,4.000,5.000,0
"05/03/07","00:09:34",59798.000,"cc",28276.920,1,0.100,47166.000,0.200,11154.000,0.300,1417.000,0.500,54.000,1.000,7.000,5.000,0
"05/03/07","00:09:40",59424.000,"cc",28309.315,1,0.100,47084.000,0.200,11004.000,0.300,1290.000,0.500,42.000,1.000,4.000,5.000,0
"05/03/07","00:09:46",59640.000,"cc",28325.014,1,0.100,47143.000,0.200,11102.000,0.300,1335.000,0.500,56.000,1.000,4.000,5.000,0
"05/03/07","00:09:52",59335.000,"cc",28362.047,1,0.100,46853.000,0.200,11075.000,0.300,1344.000,0.500,58.000,1.000,5.000,5.000,0
"05/03/07","00:09:58",58889.000,"cc",28297.582,1,0.100,46421.000,0.200,11078.000,0.300,1329.000,0.500,56.000,1.000,5.000,5.000,0
"05/03/07","00:10:04",58984.000,"cc",28283.031,1,0.100,46519.000,0.200,11072.000,0.300,1338.000,0.500,52.000,1.000,3.000,5.000,0
"05/03/07","00:10:10",59063.000,"cc",28359.678,1,0.100,46774.000,0.200,10842.000,0.300,1386.000,0.500,59.000,1.000,2.000,5.000,0
"05/03/07","00:10:16",59321.000,"cc",28326.266,1,0.100,46902.000,0.200,11054.000,0.300,1293.000,0.500,67.000,1.000,5.000,5.000,0
"05/03/07","00:10:22",59067.000,"cc",28386.523,1,0.100,46689.000,0.200,10985.000,0.300,1340.000,0.500,47.000,1.000,6.000,5.000,0
"05/03/07","00:10:28",58713.000,"cc",28293.656,1,0.100,46463.000,0.200,10844.000,0.300,1346.000,0.500,56.000,1.000,4.000,5.000,0
"05/03/07","00:10:34",59476.000,"cc",28331.674,1,0.100,46845.000,0.200,11212.000,0.300,1358.000,0.500,55.000,1.000,5.000,5.000,1.000
"05/03/07","00:10:40",58876.000,"cc",28294.117,1,0.100,46380.000,0.200,11090.000,0.300,1344.000,0.500,59.000,1.000,3.000,5.000,0
"05/03/07","00:10:46",59357.000,"cc",28295.680,1,0.100,46888.000,0.200,11079.000,0.300,1331.000,0.500,48.000,1.000,10.000,5.000,1.000
"05/03/07","00:10:52",59261.000,"cc",28285.029,1,0.100,46717.000,0.200,11140.000,0.300,1351.000,0.500,49.000,1.000,4.000,5.000,0
"05/03/07","00:10:58",59015.000,"cc",28310.111,1,0.100,46396.000,0.200,11195.000,0.300,1352.000,0.500,64.000,1.000,8.000,5.000,0
"05/03/07","00:11:04",59011.000,"cc",28349.486,1,0.100,46601.000,0.200,10966.000,0.300,1393.000,0.500,43.000,1.000,8.000,5.000,0
"05/03/07","00:11:10",59241.000,"cc",28366.842,1,0.100,46787.000,0.200,10991.000,0.300,1394.000,0.500,64.000,1.000,5.000,5.000,0
"05/03/07","00:11:16",59716.000,"cc",28365.238,1,0.100,47226.000,0.200,11025.000,0.300,1408.000,0.500,52.000,1.000,5.000,5.000,0
"05/03/07","00:11:22",59891.000,"cc",28336.559,1,0.100,47535.000,0.200,11015.000,0.300,1293.000,0.500,44.000,1.000,4.000,5.000,0
"05/03/07","00:11:28",59977.000,"cc",28229.080,1,0.100,47393.000,0.200,11183.000,0.300,1335.000,0.500,60.000,1.000,6.000,5.000,0
"05/03/07","00:11:34",59959.000,"cc",28296.647,1,0.100,47422.000,0.200,11124.000,0.300,1363.000,0.500,47.000,1.000,3.000,5.000,0
"05/03/07","00:11:40",59985.000,"cc",28329.537,1,0.100,47499.000,0.200,11095.000,0.300,1327.000,0.500,58.000,1.000,6.000,5.000,0
"05/03/07","00:11:46",59695.000,"cc",28352.467,1,0.100,47054.000,0.200,11284.000,0.300,1305.000,0.500,50.000,1.000,2.000,5.000,0
"05/03/07","00:11:52",60590.000,"cc",28288.236,1,0.100,47943.000,0.200,11221.000,0.300,1360.000,0.500,59.000,1.000,7.000,5.000,0
"05/03/07","00:11:58",60982.000,"cc",28339.713,1,0.100,48072.000,0.200,11426.000,0.300,1420.000,0.500,60.000,1.000,4.000,5.000,0
"05/03/07","00:12:04",60594.000,"cc",28295.971,1,0.100,47874.000,0.200,11268.000,0.300,1366.000,0.500,73.000,1.000,13.000,5.000,0
"05/03/07","00:12:10",61235.000,"cc",28273.121,1,0.100,48329.000,0.200,11509.000,0.300,1332.000,0.500,53.000,1.000,12.000,5.000,0
"05/03/07","00:12:16",60967.000,"cc",28335.299,1,0.100,48107.000,0.200,11400.000,0.300,1376.000,0.500,72.000,1.000,12.000,5.000,0
"05/03/07","00:12:22",62273.000,"cc",28344.000,1,0.100,49248.000,0.200,11563.000,0.300,1378.000,0.500,75.000,1.000,9.000,5.000,0
"05/03/07","00:12:28",62767.000,"cc",28333.260,1,0.100,49479.000,0.200,11839.000,0.300,1381.000,0.500,56.000,1.000,12.000,5.000,0
"05/03/07","00:12:34",62605.000,"cc",28309.809,1,0.100,49492.000,0.200,11688.000,0.300,1360.000,0.500,52.000,1.000,13.000,5.000,0
"05/03/07","00:12:40",62771.000,"cc",28322.236,1,0.100,49762.000,0.200,11592.000,0.300,1346.000,0.500,57.000,1.000,14.000,5.000,0
"05/03/07","00:12:46",63143.000,"cc",28360.229,1,0.100,49770.000,0.200,11913.000,0.300,1390.000,0.500,64.000,1.000,6.000,5.000,0
"05/03/07","00:12:52",63202.000,"cc",28311.162,1,0.100,49875.000,0.200,11847.000,0.300,1400.000,0.500,67.000,1.000,13.000,5.000,0
"05/03/07","00:12:58",63059.000,"cc",28314.469,1,0.100,49881.000,0.200,11679.000,0.300,1424.000,0.500,61.000,1.000,14.000,5.000,0
"05/03/07","00:13:04",63641.000,"cc",28323.500,1,0.100,50279.000,0.200,11926.000,0.300,1362.000,0.500,66.000,1.000,8.000,5.000,0
"05/03/07","00:13:10",63665.000,"cc",28277.836,1,0.100,50278.000,0.200,11893.000,0.300,1440.000,0.500,50.000,1.000,4.000,5.000,0
"05/03/07","00:13:16",63662.000,"cc",28240.545,1,0.100,50386.000,0.200,11770.000,0.300,1425.000,0.500,67.000,1.000,14.000,5.000,0
"05/03/07","00:13:22",65209.000,"cc",28311.543,1,0.100,51610.000,0.200,12102.000,0.300,1429.000,0.500,58.000,1.000,10.000,5.000,0
"05/03/07","00:13:28",64906.000,"cc",28325.967,1,0.100,51318.000,0.200,12101.000,0.300,1423.000,0.500,59.000,1.000,5.000,5.000,0
"05/03/07","00:13:34",65653.000,"cc",28347.147,1,0.100,51821.000,0.200,12367.000,0.300,1392.000,0.500,62.000,1.000,11.000,5.000,0
"05/03/07","00:13:40",65804.000,"cc",28345.488,1,0.100,52062.000,0.200,12264.000,0.300,1399.000,0.500,72.000,1.000,7.000,5.000,0
"05/03/07","00:13:46",65409.000,"cc",28375.727,1,0.100,51618.000,0.200,12225.000,0.300,1491.000,0.500,67.000,1.000,8.000,5.000,0
"05/03/07","00:13:52",64910.000,"cc",28325.963,1,0.100,51219.000,0.200,12193.000,0.300,1448.000,0.500,46.000,1.000,4.000,5.000,0
"05/03/07","00:13:58",66102.000,"cc",28294.168,1,0.100,52278.000,0.200,12343.000,0.300,1415.000,0.500,62.000,1.000,4.000,5.000,0
"05/03/07","00:14:04",65661.000,"cc",28298.231,1,0.100,51822.000,0.200,12234.000,0.300,1532.000,0.500,64.000,1.000,9.000,5.000,0
"05/03/07","00:14:10",67159.000,"cc",28354.115,1,0.100,53012.000,0.200,12510.000,0.300,1565.000,0.500,66.000,1.000,6.000,5.000,0
"05/03/07","00:14:16",66537.000,"cc",28327.588,1,0.100,52578.000,0.200,12338.000,0.300,1553.000,0.500,60.000,1.000,8.000,5.000,0
"05/03/07","00:14:22",66970.000,"cc",28317.107,1,0.100,52861.000,0.200,12518.000,0.300,1527.000,0.500,60.000,1.000,4.000,5.000,0
"05/03/07","00:14:28",67157.000,"cc",28323.357,1,0.100,53072.000,0.200,12505.000,0.300,1514.000,0.500,58.000,1.000,8.000,5.000,0
"05/03/07","00:14:34",67082.000,"cc",28317.949,1,0.100,52832.000,0.200,12623.000,0.300,1553.000,0.500,66.000,1.000,8.000,5.000,0
"05/03/07","00:14:40",66728.000,"cc",28300.709,1,0.100,52583.000,0.200,12542.000,0.300,1535.000,0.500,57.000,1.000,11.000,5.000,0
"05/03/07","00:14:46",68457.000,"cc",28260.338,1,0.100,54025.000,0.200,12872.000,0.300,1506.000,0.500,53.000,1.000,1.000,5.000,0
"05/03/07","00:14:52",68242.000,"cc",28215.533,1,0.100,53903.000,0.200,12725.000,0.300,1555.000,0.500,52.000,1.000,7.000,5.000,0
"05/03/07","00:14:58",68764.000,"cc",28320.377,1,0.100,54427.000,0.200,12730.000,0.300,1542.000,0.500,64.000,1.000,1.000,5.000,0
"05/03/07","00:15:04",69659.000,"cc",28335.516,1,0.100,54903.000,0.200,13113.000,0.300,1585.000,0.500,47.000,1.000,11.000,5.000,0
"05/03/07","00:15:10",70346.000,"cc",28306.119,1,0.100,55566.000,0.200,13164.000,0.300,1566.000,0.500,46.000,1.000,4.000,5.000,0
"05/03/07","00:15:16",70021.000,"cc",28272.393,1,0.100,55085.000,0.200,13282.000,0.300,1572.000,0.500,70.000,1.000,12.000,5.000,0
"05/03/07","00:15:22",70775.000,"cc",28353.779,1,0.100,55773.000,0.200,13386.000,0.300,1553.000,0.500,51.000,1.000,12.000,5.000,0
"05/03/07","00:15:28",70707.000,"cc",28298.473,1,0.100,55700.000,0.200,13363.000,0.300,1562.000,0.500,74.000,1.000,8.000,5.000,0
"05/03/07","00:15:34",69857.000,"cc",28320.799,1,0.100,55092.000,0.200,13124.000,0.300,1569.000,0.500,65.000,1.000,7.000,5.000,0
"05/03/07","00:15:40",70370.000,"cc",28319.092,1,0.100,55600.000,0.200,13075.000,0.300,1634.000,0.500,53.000,1.000,8.000,5.000,0
"05/03/07","00:15:46",71874.000,"cc",28331.225,1,0.100,56790.000,0.200,13450.000,0.300,1563.000,0.500,64.000,1.000,7.000,5.000,0
"05/03/07","00:15:52",71891.000,"cc",28299.254,1,0.100,56806.000,0.200,13449.000,0.300,1569.000,0.500,56.000,1.000,11.000,5.000,0
"05/03/07","00:15:58",71533.000,"cc",28329.732,1,0.100,56415.000,0.200,13433.000,0.300,1610.000,0.500,62.000,1.000,13.000,5.000,0
"05/03/07","00:16:04",71925.000,"cc",28330.658,1,0.100,56708.000,0.200,13523.000,0.300,1621.000,0.500,67.000,1.000,6.000,5.000,0
"05/03/07","00:16:10",72271.000,"cc",28293.236,1,0.100,57197.000,0.200,13402.000,0.300,1619.000,0.500,45.000,1.000,8.000,5.000,0
"05/03/07","00:16:16",72069.000,"cc",28297.891,1,0.100,56964.000,0.200,13491.000,0.300,1545.000,0.500,59.000,1.000,10.000,5.000,0
"05/03/07","00:16:22",72420.000,"cc",28377.549,1,0.100,56936.000,0.200,13752.000,0.300,1678.000,0.500,47.000,1.000,7.000,5.000,0
"05/03/07","00:16:28",72897.000,"cc",28372.416,1,0.100,57522.000,0.200,13735.000,0.300,1570.000,0.500,63.000,1.000,7.000,5.000,0
"05/03/07","00:16:34",72460.000,"cc",28349.127,1,0.100,57159.000,0.200,13576.000,0.300,1667.000,0.500,55.000,1.000,3.000,5.000,0
"05/03/07","00:16:40",73132.000,"cc",28323.076,1,0.100,57783.000,0.200,13663.000,0.300,1610.000,0.500,66.000,1.000,10.000,5.000,0
"05/03/07","00:16:46",74480.000,"cc",28311.883,1,0.100,58702.000,0.200,14061.000,0.300,1660.000,0.500,54.000,1.000,3.000,5.000,0
"05/03/07","00:16:52",74938.000,"cc",28279.525,1,0.100,59132.000,0.200,14021.000,0.300,1702.000,0.500,76.000,1.000,7.000,5.000,0
"05/03/07","00:16:58",75424.000,"cc",28315.924,1,0.100,59397.000,0.200,14224.000,0.300,1726.000,0.500,69.000,1.000,8.000,5.000,0
"05/03/07","00:17:04",75350.000,"cc",28356.748,1,0.100,59416.000,0.200,14181.000,0.300,1691.000,0.500,59.000,1.000,3.000,5.000,0
"05/03/07","00:17:10",74912.000,"cc",28327.686,1,0.100,59127.000,0.200,14018.000,0.300,1693.000,0.500,67.000,1.000,7.000,5.000,0
"05/03/07","00:17:16",75887.000,"cc",28311.098,1,0.100,59630.000,0.200,14523.000,0.300,1670.000,0.500,57.000,1.000,7.000,5.000,0
"05/03/07","00:17:22",75943.000,"cc",28331.998,1,0.100,59764.000,0.200,14412.000,0.300,1704.000,0.500,59.000,1.000,4.000,5.000,0